Regional Weather Roundup
Issued by NWS State College, PA

Home | Current Version | Previous Version | Text Only | Print | Product List | Glossary Off
Versions: 1 2 3 4 5 6 7 8 9 10 11 12 13 14 15 16 17 18 19 20 21 22 23 24 25 26 27 28 29 30 31 32 33 34 35 36 37 38 39 40 41 42 43 44 45 46 47 48 49 50

000
ASUS41 KCTP 210310
RWRCTP

REGIONAL WEATHER ROUNDUP
NATIONAL WEATHER SERVICE STATE COLLEGE PA
1000 PM EST THU NOV 20 2014

Note: "fair" indicates few or no clouds below 12,000 feet with no
significant weather and/or obstructions to visibility.

* = STATION THAT DOES NOT REPORT PRECIPITATION /E.G. RAIN...SNOW...ETC/
    THUNDER OR FOG.

PAZ002>004-007>009-013>016-020>023-029>032-210400-
WESTERN PENNSYLVANIA

CITY           SKY/WX    TMP DP  RH WIND       PRES   REMARKS
ERIE           LGT SNOW  25  14  63 W23G36    30.03R WCI  10
MEADVILLE      SNOW      20  16  84 SW12G18   30.02R VSB 1/4 WCI   8
FRANKLIN*      MOCLDY    19   9  63 SW9G23    30.03R WCI   9
NEW CASTLE       N/A     21  12  68 SW15      30.09S WCI   8
BEAVER COUNTY  NOT AVBL
BUTLER*        PTCLDY    21  10  63 SW13G18   30.10R WCI   9
PITTSBURGH INT MOCLDY    23  18  81 W9        30.11R WCI  13
PITTSBURGH     CLOUDY    24  11  57 W9G18     30.09R WCI  14
INDIANA*       CLOUDY    23  14  68 W15G22    30.10R WCI  10
LATROBE        CLEAR     25  10  54 SW14G23   30.12R WCI  13
WASHINGTON CO* CLOUDY    25  12  58 W12G17    30.13R WCI  14
$$

PAZ004>006-010>012-017>019-024>028-033>037-041-042-045-046-049>053-210400-
CENTRAL PENNSYLVANIA

CITY           SKY/WX    TMP DP  RH WIND       PRES   REMARKS
BRADFORD       LGT SNOW  18  10  71 SW10G23   29.92R WCI   6
DUBOIS         PTCLDY    19  13  77 W15       29.99R WCI   5
CLEARFIELD     MOCLDY    21  11  65 W12G25    30.02R WCI   9
JOHNSTOWN      CLOUDY    20   8  60 W15G24    29.99R WCI   6
ALTOONA        CLEAR     24   8  50 W23G30    30.02S WCI   9
STATE COLLEGE  CLEAR     24   9  52 W15G28    30.03R WCI  11
WILLIAMSPORT   CLEAR     26   9  48 W9        30.02S
SELINSGROVE    CLEAR     28   9  44 W6        30.06R
FT INDIANTOWN  CLEAR     29   9  42 W9        30.06R
CAPITAL CITY   PTCLDY    30  10  43 W8        30.08R
HARRISBURG     PTCLDY    28  13  53 NW12      30.07R
YORK           CLEAR     28  12  51 NW7       30.06R
$$

PAZ038>040-043-044-047-048-054-055-060>062-067>071-210400-
EASTERN PENNSYLVANIA

CITY           SKY/WX    TMP DP  RH WIND       PRES   REMARKS
SCRANTON       CLEAR     25   6  44 SW7       29.98S
MOUNT POCONO   CLEAR     21   5  50 W12G24    29.91R WCI   9
ALLENTOWN      CLEAR     29   8  41 W13G22    30.03R
QUAKERTOWN*    FAIR      28   9  43 NW13G18   30.03R
READING        CLEAR     29   9  43 CALM      30.05S
LANCASTER      CLEAR     28  10  46 NW9       30.05R
COATESVILLE    CLEAR     28  10  47 NW10      30.04R
POTTSTOWN      CLEAR     29   9  43 NW9       30.05R
BLUE BELL      CLEAR     32  12  43 NW7       30.03R
DOYLESTOWN     CLEAR     28   9  44 NW13G21   30.02R
WILLOW GROVE   NOT AVBL
NORTH PHILA    CLEAR     34   7  32 NW16G24   30.06R
PHILADELPHIA   PTCLDY    35  10  35 VRB6G18   30.06R
$$


USA.gov is the U.S. government's official web portal to all federal, state and local government web resources and services.